Regional Weather Roundup
Issued by NWS

Home | Current Version | Previous Version | Graphics & Text | Print | Product List | Glossary On
Versions: 1 2 3 4 5 6 7 8 9 10 11 12 13 14 15 16 17 18 19 20 21 22 23 24 25 26 27 28 29 30 31 32 33 34 35 36 37 38 39 40 41 42 43 44 45 46 47 48 49 50
000
ASUS43 KMKX 052211
RWRWI

WISCONSIN REGIONAL WEATHER ROUNDUP
NATIONAL WEATHER SERVICE MILWAUKEE/SULLIVAN WI
400 PM CST FRI FEB 05 2016

NOTE: "FAIR" INDICATES FEW OR NO CLOUDS BELOW 12,000 FEET WITH NO
SIGNIFICANT WEATHER AND/OR OBSTRUCTIONS TO VISIBILITY.

WIZ001-002-006>008-014>016-023>028-052300-
NORTHWEST WISCONSIN

CITY           SKY/WX    TMP DP  RH WIND       PRES   REMARKS
SUPERIOR ARPT  CLOUDY    29  11  46 SW16      30.16S WCI  18
ASHLAND        CLOUDY    28  11  48 S13       30.18F WCI  17
HAYWARD        SUNNY     24  10  55 S14       30.18F WCI  12
SIREN          MOSUNNY   27  13  55 SW12      30.20F WCI  16
CUMBERLAND     CLOUDY    19  10  68 S8        30.21F WCI   9
RICE LAKE      CLOUDY    22  13  65 SE8       30.25S WCI  13
CHETEK         CLOUDY    22  12  63 S5        30.24F WCI  16
LADYSMITH      CLOUDY    23  11  61 S7        30.25S WCI  15
EAU CLAIRE     CLOUDY    23  12  62 S8        30.25F WCI  14
MENOMONIE      MOSUNNY   27  12  54 S6        30.26F WCI  20
NEW RICHMOND   CLOUDY    25  15  65 S8        30.23F WCI  16
OSCEOLA        CLOUDY    27  16  64 S8        30.26S WCI  18
$$

WIZ003>005-009-010-017-018-052300-
NORTH CENTRAL WISCONSIN

CITY           SKY/WX    TMP DP  RH WIND       PRES   REMARKS
MANITOWISH WTR MOCLDY    24   8  51 SW10      30.17F WCI  13
ARBOR VITAE    PTCLDY    27   8  45 SW7       30.18F WCI  19
WOODRUFF       PTCLDY    27   8  45 SW7       30.18F WCI  19
RHINELANDER    PTCLDY    26   8  46 SW9       30.20F WCI  17
EAGLE RIVER    CLEAR     23   6  48 SW6       30.18S WCI  16
LAND O LAKES   CLOUDY    27   7  43 SW10      30.18S WCI  17
PHILLIPS       CLOUDY    25   9  52 S7        30.19F WCI  17
TOMAHAWK       SUNNY     26   5  40 SW3       30.22R
MEDFORD        CLOUDY    21  13  71 S6        30.22F WCI  14
MERRILL        CLOUDY    24  11  56 SW3       30.25S
$$

WIZ029-030-035-036-043>047-052300-
CENTRAL WISCONSIN

CITY           SKY/WX    TMP DP  RH WIND       PRES   REMARKS
WAUSAU         CLOUDY    26  10  50 SW7       30.24S WCI  18
MOSINEE        SUNNY     25  12  58 SW6       30.26F WCI  18
MARSHFIELD     CLOUDY    25  13  60 CALM      30.24F
STEVENS POINT  CLOUDY    24  15  67 S7        30.27F WCI  16
WAUPACA        CLOUDY    29  15  55 SW5       30.30S WCI  24
WAUTOMA        CLOUDY    29  16  58 SW7       30.31S WCI  22
WISC RAPIDS    CLOUDY    25  15  66 S8        30.29F WCI  16
CAMP DOUGLAS   CLOUDY    27  18  69 SW8       30.29F WCI  18
$$

WIZ011>013-019>022-031-037>040-048>050-052300-
NORTHEAST WISCONSIN

CITY           SKY/WX    TMP DP  RH WIND       PRES   REMARKS
ANTIGO         CLEAR     22  10  60 SW8       30.22S WCI  12
SHAWANO        CLEAR     31  11  44 SW6       30.28F WCI  25
OCONTO         CLEAR     27  15  60 W3        30.29S
STURGEON BAY   CLEAR     23  10  58 SW7       30.31S WCI  15
GREEN BAY      CLEAR     25  14  63 S6        30.29F WCI  18
MANITOWOC      CLEAR     25  16  68 W7        30.32S WCI  17
APPLETON       PTSUNNY   27  12  54 SW6       30.27S WCI  20
CLINTONVILLE   CLEAR     27  14  59 SW8       30.28F WCI  18
OSHKOSH        CLOUDY    25  16  68 SW6       30.30F WCI  18
$$

WIZ032>034-041-042-053>061-052300-
SOUTHWEST WISCONSIN

CITY           SKY/WX    TMP DP  RH WIND       PRES   REMARKS
LA CROSSE      CLOUDY    25  14  63 S9        30.31F WCI  15
SPARTA         CLOUDY    26  17  66 CALM      30.32S
VIROQUA        CLOUDY    24  15  69 SW7       30.28F WCI  16
BOSCOBEL       CLOUDY    28  17  63 S6        30.34S WCI  22
PRAIRIE DU CHI CLOUDY    28  13  55 SW3       30.34S
PLATTEVILLE    CLOUDY    28  21  75 S6        30.32F WCI  22
$$

WIZ056-057-062-063-064-067-068-052300-
SOUTH CENTRAL WISCONSIN

CITY           SKY/WX    TMP DP  RH WIND       PRES   REMARKS
REEDSBURG      CLOUDY    28  17  65 SW6       30.31S WCI  21
BARABOO/DELLS  CLOUDY    28  15  60 W7        30.30S WCI  20
LONE ROCK      PTSUNNY   27  17  66 S9        30.34S WCI  18
MINERAL POINT  CLOUDY    30  19  64 SW5       30.31F WCI  25
MADISON        CLOUDY    29  16  58 W3        30.32F
MIDDLETON      CLOUDY    30  19  61 SW8       30.32S WCI  23
WATERTOWN      CLOUDY    28  17  61 W5        30.32F WCI  23
MONROE         CLOUDY    28  18  64 W7        30.32S WCI  21
JANESVILLE     SUNNY     30  18  59 W7        30.34R WCI  23
$$

WIZ051-052-058>065-066-070>072-052300-
SOUTHEAST WISCONSIN

CITY           SKY/WX    TMP DP  RH WIND       PRES   REMARKS
MILWAUKEE      PTSUNNY   31  12  45 W9        30.33R WCI  23
WAUKESHA       SUNNY     27  16  63 W8        30.33R WCI  18
MILWAUKEE/TIMM SUNNY     28  12  50 W9        30.33R WCI  20
RACINE         PTSUNNY   32  14  47 W9        30.35R WCI  24
BURLINGTON     MOSUNNY   28  15  57 W6        30.34S WCI  22
KENOSHA        CLOUDY    30  18  60 W9        30.33S WCI  22
FOND DU LAC    CLOUDY    26  15  63 SW8       30.32S WCI  18
SHEBOYGAN      CLOUDY    25  14  63 W8        30.31S WCI  16
WEST BEND      CLOUDY    28  14  54 W7        30.32R WCI  21
JUNEAU         CLOUDY    25  17  69 SW7       30.33S WCI  17
$$

LSZ147-162-052300-
LAKE SUPERIOR

STATION/POSITION TIME  TEMP    WIND        PRES    WAVE
                       AIR SEA DIR/SP/G            HT/PER
                 (UTC) (F)     (DEG/KT/KT) (MB)    (FT/S)
DEVILS ISLAND    2200   25     180/  7/  9 1022.2F
SAXON HARBOR     2100   30                 1022.4
$$

LMZ867-665-643>646-052300-
LAKE MICHIGAN

STATION/POSITION TIME  TEMP    WIND        PRES    WAVE
                       AIR SEA DIR/SP/G            HT/PER
                 (UTC) (F)     (DEG/KT/KT) (MB)    (FT/S)
CHAMBERS ISLAND  2100   26     180/  4/  8 1025.7S
NORTHPORT PIER   2100   26     270/  7/ 10 1025.4
ALGOMA LAKESHORE 2111          270/ 10/ 13   N/A
KEWAUNEE LAKESHO 2100   25     250/  6/  9 1025.2F
SHEBOYGAN LAKESH 2200   26     260/  7/  9 1027.9R
PORT WASHINGTON  2100   30     280/  5/  9 1027.4R
MILWAUKEE LAKESH 2110   31     300/  6/ 10   N/A
KENOSHA   LAKESH 2200   31     270/  9/ 11 1027.1S
$$

TC  - TEMPERATURE IN CELSIUS
VSB - VISIBILITY IN STATUTE MILES
WCI - WIND CHILL INDEX
HX  - HEAT INDEX




USA.gov is the U.S. government's official web portal to all federal, state and local government web resources and services.